STARLINK-34859, 65348

Orbit data source: Space-Track

STARLINK-34859, 65348 is a payload satellite owned by SpaceX/Seattle (US) in LEO that was launched on Wed, 27 Aug 2025 UTC via an FALCON 9 launch vehicle from the Air Force Eastern Test Range (AFETR). Payload-class satellites include a variety of spacecraft equipped with specific instruments for various scientific and technological missions. These include communications satellites like Starlink; space stations such as the ISS; scientific satellites like the Hubble; Earth observation satellites from companies like Planet Labs, Umbra, and HawkEye 360; GPS; miniature CubeSats for education and research; and military/defense satellites.

Loading next visibility...
Identifier
65348, 2025-189AB
Orbit
LEO
Country
Flag of USUS
Related business
Manufacturer
SpaceX/Seattle
Mission
Operational Commercial Communications
Bus & Motor
STARLINK V2MO, Unknown motor
Mass
575 kg wet, ~530 kg dry
Launch date (UTC)
2025-08-27 (10 months ago)
Launch vehicle
FALCON 9
Launch site
Air Force Eastern Test Range (AFETR)
Object type
Payload
Rocket body
Debris
Shape & HBR
Box + 2 Pan, 17.7 m
Radar Cross Section
36.964 m², Large (>1 m²)

Expand to show TLE details & history
Last TLE update: 21 hours ago

TLE from 21 hours ago
0 STARLINK-34859
1 65348U 25189AB  26170.96727661  .00013846  00000-0  47857-3 0  9997
2 65348  53.1598  91.8363 0001430  93.4447 266.6717 15.30211768 46760
Epoch: 2026-06-19T23:12Z
TLE epoch observation values (Epoch: 2026-06-19T23:12:52.699Z)
Latitude
-0.00003°
Longitude
-164.57196°
Altitude
476.137 km
Speed
7.629 km/s
True Right ascension
06h 07m 20s
True Declination
0° 00' 00"
Sunlit
Object was in daylight at epoch
Visualization orbit readout
Latitude
Unknown
Longitude
Unknown
Altitude
Unknown
Speed
Unknown
Apparent Right ascension
Unknown
Apparent Declination
Unknown
Sunlit
N/A
Visualization observer readout
Local Sidereal Time
07:12:22
Azimuth
Unknown
Elevation
Unknown
Doppler factor
Unknown
Orbital elements
Apogee altitude
476.416 km
Perigee altitude
474.456 km
Semi-major axis
6,853.573 km
Eccentricity
0.00014
Inclination
53.1598°
RAAN
91.8363°
Arg. of periapsis
93.4447°
True anomaly
266.65534°
Mean anomaly
266.6717°
Eccentric anomaly
266.66352°
Mean motion
3.82532 °/min
Orbital period
94.11 mins
BSTAR
0.00047857
Loading maneuver chart data...
Computing Atmospheric mass density...
Loading historical data...
Loading historical data...
Loading historical data...
Loading historical data...
Loading historical data...
Loading historical data...
Loading historical data...

Documentation

Showing up to 5 results
|